This demonstration page uses our WeatherBlox Daily Observations layout. Learn more.

38.89511, -77.03637

Hourly Observations for September 25, 2016

Temp ( °F °C ) Dew Point ( °F °C ) Humidity (%) Winds ( mph kmh ) Pressure ( in mb ) Visibility ( mi km ) Precip ( " mm )
12:52 am 00:52 Mostly Clear 65 18.3 63 17.2 93 93 NE 6 9 30.16 1021 10 16.0934 0 0
1:52 am 01:52 Mostly Clear 64 17.8 62 16.7 93 93 Calm 30.16 1021 10 16.0934 0 0
2:52 am 02:52 Mostly Clear 63 17.2 62 16.7 97 97 Calm 30.16 1021 10 16.0934 0 0
3:52 am 03:52 Mostly Clear 63 17.2 57 13.9 81 81 NNE 10 17 30.16 1021 10 16.0934 0 0
4:52 am 04:52 Mostly Clear 61 16.1 54 12.2 78 78 NE 12 19 30.17 1022 10 16.0934 0 0
5:52 am 05:52 Mostly Clear 60 15.6 50 10 70 70 NE 13 20 30.19 1023 10 16.0934 0 0
6:52 am 06:52 Partly Cloudy 59 15 49 9.4 69 69 NNE 8 13 30.21 1023 10 16.0934 0 0
7:52 am 07:52 Mostly Sunny 60 15.6 48 8.9 65 65 NNE 9 15 30.23 1024 10 16.0934 0 0
8:52 am 08:52 Mostly Sunny 62 16.7 47 8.3 58 58 NE 10 17 30.22 1024 10 16.0934 0 0
9:52 am 09:52 Partly Cloudy 64 17.8 47 8.3 54 54 NE 9 15 30.22 1024 10 16.0934 0 0
10:52 am 10:52 Partly Cloudy 68 20 45 7.2 44 44 ENE 7 11 30.22 1024 10 16.0934 0 0
11:52 am 11:52 Partly Cloudy 69 20.6 45 7.2 42 42 VRB 3 6 30.22 1023 10 16.0934 0 0
12:52 pm 12:52 Partly Cloudy 72 22.2 45 7.2 38 38 Calm 30.21 1023 10 16.0934 0 0
1:52 pm 13:52 Mostly Cloudy 73 22.8 46 7.8 38 38 VRB 3 6 30.18 1022 10 16.0934 0 0
2:52 pm 14:52 Mostly Cloudy 74 23.3 46 7.8 37 37 Calm 30.16 1021 10 16.0934 0 0
3:52 pm 15:52 Mostly Cloudy 74 23.3 46 7.8 37 37 ESE 3 6 30.14 1021 10 16.0934 0 0
4:52 pm 16:52 Partly Cloudy 74 23.3 48 8.9 40 40 S 8 13 30.13 1020 10 16.0934 0 0
5:52 pm 17:52 Partly Cloudy 72 22.2 51 10.6 48 48 SW 9 15 30.13 1020 10 16.0934 0 0
6:52 pm 18:52 Mostly Cloudy 69 20.6 52 11.1 55 55 SW 7 11 30.15 1021 10 16.0934 0 0
7:52 pm 19:52 Mostly Cloudy 67 19.4 52 11.1 59 59 VRB 6 9 30.16 1021 10 16.0934 0 0
8:52 pm 20:52 Mostly Cloudy 66 18.9 51 10.6 59 59 SE 8 13 30.17 1022 10 16.0934 0 0
9:52 pm 21:52 Mostly Cloudy 66 18.9 51 10.6 59 59 SE 8 13 30.18 1022 10 16.0934 0 0
10:52 pm 22:52 Mostly Cloudy 64 17.8 51 10.6 63 63 SSW 7 11 30.18 1022 10 16.0934 0 0
11:52 pm 23:52 Mostly Cloudy 66 18.9 51 10.6 59 59 S 6 9 30.17 1022 10 16.0934 0 0

Powered by AerisWeather